SCP
0 0 0 0 0 0 0 0 0 0 0 0 0 0 0 0 0 0 0 0 0 0 0 0 0 0 0 0 0 0 0 0 0 0 0 0 0 0 0 0 0 0 0
0 0 0 0 0 0 0 0 0 0 0 0 0 0 0 0 0 0 0 0 0 0 0 0 0 0 0 0 0 0 0 0 0 0 0 0 0 0 0 0 0 0 0
0 0 0 0 0 0 0 0 0 0 0 0 0 0 0 0 0 0 0 0 0 0 0 0 0 0 0 0 0 0 0 0 0 0 0 0 0 0 0 0 0 0 0
0 0 0 0 0 0 0 0 0 0 0 0 0 0 0 0 0 0 0 0 0 0 0 0 0 0 0 0 0 0 0 0 0 0 0 0 0 0 0 0 0 0 0
0 0 0 0 0 0 0 0 0 0 0 0 0 0 0 0 0 0 0 0 0 0 0 0 0 0 0 0 0 0 0 0 0 0 0 0 0 0 0 0 0 0 0
0 0 0 0 0 0 0 0 0 0 0 0 0 0 0 0 0 0 0 0 0 0 0 0 0 0 0 0 0 0 -0 -0 -0 0 0 0 0 0 0 0 0 0 0
0 0 0 0 0 0 0 0 0 0 0 0 0 0 0 0 0 0 0 0 0 0 0 0 0 0 0 0 0 -0 -0 -0 -0 0 0 0 0 0 0 0 0 0 0
0 0 0 0 0 0 0 0 0 0 0 0 0 0 0 0 0 0 0 0 0 0 0 0 0 0 0 0 -0 -0 -0 -0 0 0 0 0 0 0 0 0 0 0 0
0 0 0 0 0 0 0 0 0 0 0 0 0 0 0 0 0 0 0 0 0 0 0 0 0 0 -0 -0 -0 0 0 0 0 0 0 0 0 0 0 0 0 0 0
0 0 0 0 0 0 0 0 0 0 0 0 0 0 0 0 0 0 0 0 0 0 0 0 0 -0 -0 -0 -0 0 0 0 0 0 0 0 0 0 0 0 0 0 0
0 0 0 0 0 0 0 0 0 0 0 0 0 0 0 0 0 0 0 0 0 0 0 0 0 -0 -0 -0 -0 0 0 0 0 0 0 0 0 0 0 0 0 0 0
0 0 0 0 0 0 0 0 0 0 0 0 0 0 0 0 0 0 0 0 0 0 0 0 -0 -0 -0 -0 0 0 0 0 0 0 0 0 0 0 0 0 0 0 0
0 0 0 0 0 0 0 0 0 0 0 0 0 0 0 0 0 0 0 0 0 0 0 -0 -0 -0 -0 0 0 0 0 0 0 0 0 0 0 0 0 0 0 0 0
0 0 0 0 0 0 0 0 0 0 0 0 0 0 0 0 0 0 0 0 0 0 -0 -0 -0 0 0 0 0 0 0 0 0 0 0 0 0 0 0 0 0 0 0
0 0 0 0 0 0 0 0 0 0 0 0 0 0 0 0 0 0 0 0 0 0 0 0 0 0 0 0 0 0 0 0 0 0 0 0 -0 -0 -0 0 0 0 0
0 0 0 0 0 0 0 0 0 0 0 0 0 0 0 0 0 0 0 0 0 0 0 0 0 0 0 0 0 0 0 0 0 0 0 0 0 0 0 0 0 0 0
0 0 0 0 0 0 0 0 0 0 0 0 0 0 0 0 0 0 0 0 0 0 0 0 0 0 0 0 0 0 0 0 0 0 0 0 0 0 0 0 0 0 0
0 0 0 0 0 0 0 0 0 0 0 0 0 0 0 0 0 0 0 0 0 0 0 0 0 0 0 0 0 0 0 0 0 0 0 0 0 0 0 0 0 0 0
0 0 0 0 0 0 0 0 0 0 0 0 0 0 0 0 0 0 0 0 0 0 0 0 0 0 0 0 0 0 0 0 0 0 0 0 0 0 0 0 0 0 0
0 0 0 0 0 0 0 0 0 0 0 0 0 0 0 0 0 0 0 0 0 0 0 0 0 0 0 0 0 0 0 0 0 0 0 0 0 0 0 0 0 0 0
0 0 0 0 0 0 0 0 0 0 0 0 0 0 0 0 0 0 0 0 0 0 0 0 0 0 0 0 0 0 0 0 0 0 0 0 0 0 0 0 0 0 0
0 0 0 0 0 0 0 0 0 0 0 0 0 0 0 0 0 0 0 0 0 0 0 0 0 0 0 0 0 0 0 0 0 0 0 0 0 0 0 0 0 0 0
0 0 0 0 0 0 0 0 0 0 0 0 0 0 0 0 0 0 0 0 0 0 0 0 0 0 0 0 0 0 0 0 0 0 0 0 0 0 0 0 0 0 0
0 0 0 0 0 0 0 0 0 0 0 0 0 0 0 0 0 0 0 0 0 0 0 0 0 0 0 0 0 0 0 0 0 0 0 0 0 0 0 0 0 0 0
0 0 0 0 0 0 0 0 0 0 0 0 0 0 0 0 0 0 0 0 0 0 0 0 0 0 0 0 0 0 0 0 0 0 0 0 0 0 0 0 0 0 0
0 0 0 0 0 0 0 0 0 0 0 0 0 0 0 0 0 0 0 0 0 0 0 0 0 0 0 0 0 0 0 -0 -0 -0 0 0 0 0 0 0 0 0 0
Wind_Speed
3 3 3 2 2 3 3 4 4 4 4 4 4 3 3 3 2 2 1 1 1 1 1 1 2 2 1 1 2 2 2 3 7 7 5 5 6 7 8 7 7 6 8
3 3 3 2 2 3 3 4 4 4 4 4 3 3 3 3 2 2 2 1 1 1 1 1 2 2 2 2 2 2 3 3 5 8 7 6 7 7 8 8 8 8 7
2 3 3 3 2 2 3 3 4 4 4 4 3 3 3 3 2 2 2 1 1 1 1 2 2 2 3 2 3 3 3 4 3 6 8 6 6 6 7 8 8 6 7
2 3 3 3 3 2 2 3 4 4 4 4 3 3 3 2 2 2 1 1 1 1 1 1 2 2 3 3 3 3 3 4 4 5 6 6 6 6 6 7 8 6 7
3 3 2 2 2 2 2 3 3 4 4 4 3 3 2 2 2 2 1 1 1 1 1 2 2 3 4 4 4 3 3 3 4 5 6 6 6 6 6 6 8 8 7
2 2 2 2 2 2 2 3 3 3 3 3 3 3 2 2 2 2 1 1 1 1 2 2 2 2 4 5 7 7 6 4 5 5 5 6 8 7 6 6 7 8 7
2 2 2 2 2 2 2 3 3 3 3 3 3 3 2 2 2 2 0 0 1 1 2 2 2 2 4 3 5 7 7 8 8 6 7 7 7 7 7 8 7 8 8
2 2 1 2 2 1 2 3 3 3 3 3 3 3 2 2 2 1 0 0 1 1 1 2 2 3 3 3 3 4 4 5 6 5 5 6 6 6 6 7 7 8 7
2 1 1 1 2 1 2 2 2 3 2 2 2 2 2 2 2 1 1 1 0 1 2 1 2 2 4 5 4 4 5 5 6 7 8 8 10 11 9 5 6 6 7
1 1 1 1 2 1 1 2 2 2 2 2 2 2 2 2 2 1 0 1 0 1 1 2 3 4 5 6 3 4 5 5 5 6 6 7 6 7 9 5 4 5 6
2 2 1 1 1 1 1 1 2 2 2 2 2 1 2 2 2 2 1 0 1 1 1 2 2 5 5 6 6 4 6 6 4 4 4 4 4 4 4 4 4 4 4
2 2 1 1 1 2 2 2 1 2 2 2 2 1 1 1 1 1 1 2 2 1 1 1 2 4 5 7 6 6 8 6 3 3 4 4 4 5 5 5 5 4 4
2 2 1 2 1 2 2 2 1 1 2 2 2 1 1 1 0 1 2 3 3 2 1 3 4 4 5 4 6 7 6 3 3 3 4 4 4 5 5 5 5 4 4
2 2 1 2 2 2 1 1 1 1 1 1 1 1 1 1 1 1 1 1 3 2 2 2 4 4 4 5 5 4 3 3 3 3 3 4 4 4 4 4 5 5 4
1 1 1 2 2 2 2 1 1 1 1 1 1 1 1 1 1 2 1 1 1 1 1 2 2 2 2 3 3 3 3 3 3 3 3 4 4 4 5 5 4 4 4
1 1 1 1 1 2 2 2 3 2 3 2 2 1 0 0 1 1 2 2 3 2 2 1 1 2 2 2 3 3 3 3 3 3 4 4 4 5 5 5 4 4 4
1 1 1 1 1 1 1 2 2 3 3 3 3 2 2 2 2 2 2 2 2 3 2 1 1 1 2 2 2 3 3 3 3 3 3 4 4 4 4 5 5 5 4
2 1 1 1 1 1 1 1 1 1 1 2 2 3 3 3 3 3 3 3 2 2 1 1 1 2 2 2 2 3 3 3 3 3 3 4 4 4 4 5 4 5 5
1 1 1 1 1 1 1 1 1 1 1 1 1 2 3 3 4 4 4 2 1 1 1 1 1 2 2 2 2 2 3 3 3 3 3 4 4 4 4 4 4 6 5
1 2 1 1 1 1 1 1 1 1 1 1 1 1 1 2 2 2 2 2 1 1 1 1 2 2 2 2 2 2 3 3 3 3 3 4 4 4 4 5 5 4 4
1 1 2 1 1 1 1 1 1 1 1 1 0 0 1 1 1 1 1 2 1 1 2 2 2 2 2 2 2 2 3 3 3 3 3 3 4 4 4 4 4 4 4
1 1 1 1 1 1 1 1 1 1 1 1 1 1 2 2 1 1 1 2 2 1 1 1 2 2 2 2 2 3 3 3 3 3 3 4 4 4 4 4 4 3 3
1 1 1 1 1 1 1 1 1 1 1 1 1 1 1 1 1 1 1 2 2 2 2 2 2 2 2 2 2 2 3 3 3 3 4 4 4 4 3 4 4 4 3
1 1 1 1 1 1 1 1 1 1 1 1 1 1 1 1 1 2 2 2 2 2 2 2 2 3 4 3 3 3 3 3 3 3 4 4 4 3 3 3 4 4 3
1 1 1 1 1 1 1 1 1 1 1 1 1 1 1 1 2 2 2 2 2 2 3 3 2 3 4 5 5 4 5 6 6 4 3 3 3 3 3 3 3 4 3
1 1 1 1 1 1 1 1 1 1 1 1 1 1 1 1 1 2 2 2 2 2 3 3 3 4 5 4 5 6 7 7 7 6 3 2 2 3 3 3 3 3 3
Wind_Direction
143 147 135 134 138 143 149 153 151 144 148 156 159 156 157 162 160 153 169 165 161 229 246 241 264 272 270 274 273 273 275 273 281 292 298 311 315 317 317 314 312 313 314
141 141 133 133 138 154 155 151 145 143 147 152 152 152 158 159 157 162 181 178 189 222 248 259 273 283 279 276 276 276 277 276 280 295 306 312 311 311 312 315 319 318 313
126 136 133 140 144 159 157 147 143 143 142 144 147 157 163 162 160 167 172 180 202 229 249 264 278 285 287 291 290 288 287 294 291 294 300 304 306 312 315 315 316 314 317
124 125 132 146 152 149 147 140 143 144 143 146 149 154 156 155 153 153 157 172 214 259 264 264 275 279 284 295 295 292 297 302 301 298 298 305 308 310 315 320 321 323 322
119 121 128 132 136 134 140 141 141 140 144 145 145 148 153 157 159 151 162 178 205 270 286 280 279 289 302 304 305 306 307 302 302 301 301 309 312 318 321 318 318 317 314
111 119 121 120 121 134 144 143 135 134 140 145 151 154 157 164 156 148 165 177 208 259 280 290 292 290 300 313 315 313 308 298 298 297 297 301 305 310 315 318 318 320 316
103 102 109 122 126 135 145 149 148 147 142 146 154 152 159 168 162 162 189 190 221 248 267 288 303 305 312 306 309 311 305 298 291 287 290 294 300 307 312 313 313 312 302
107 104 103 117 127 127 138 150 150 142 144 151 156 158 161 173 174 170 163 135 232 259 266 272 283 294 301 308 310 308 300 299 297 293 284 291 300 305 303 302 302 303 296
112 116 118 121 129 132 144 147 145 140 144 149 152 157 160 181 183 162 85 135 223 285 290 302 296 293 304 320 320 312 312 311 315 312 312 314 320 324 325 321 321 320 315
104 105 101 115 130 132 145 137 122 129 140 143 149 156 159 174 179 165 80 150 233 291 306 310 310 318 320 327 319 310 310 314 323 327 326 326 325 328 336 330 318 316 315
69 74 79 87 107 116 107 112 120 121 129 140 149 154 161 167 175 187 240 197 204 268 293 308 319 327 326 326 323 307 308 319 324 327 327 329 331 332 331 327 319 306 304
80 85 89 89 85 98 106 106 120 133 137 138 129 116 107 124 138 227 288 333 349 306 291 306 320 331 334 332 330 331 334 336 333 332 333 333 333 333 329 327 320 308 286
85 80 87 79 82 101 116 117 115 124 133 141 137 131 99 76 53 0 345 351 355 356 343 338 342 348 343 340 343 346 349 349 343 341 334 328 325 321 321 322 317 312 308
93 88 92 101 95 97 96 107 117 127 139 138 135 132 107 68 42 37 21 12 9 8 358 4 8 4 349 341 346 353 355 351 344 335 326 321 324 329 328 326 325 328 330
89 87 88 95 96 93 77 74 91 73 115 133 148 147 150 187 289 325 337 338 339 337 358 10 8 357 356 352 352 354 355 352 352 342 334 331 332 333 330 332 332 334 335
98 85 82 89 85 91 90 60 51 72 63 58 62 74 39 343 355 7 6 16 15 24 30 25 358 350 342 342 348 348 349 348 343 339 336 334 334 335 333 335 337 339 338
99 99 97 97 101 97 99 99 72 48 51 63 83 80 58 51 47 35 32 33 42 46 43 29 348 334 336 345 344 339 335 333 334 337 335 334 334 334 333 336 341 341 338
67 67 87 113 117 117 112 109 111 103 70 42 51 60 58 55 47 44 51 51 54 45 30 4 339 335 338 343 340 337 334 334 337 338 336 336 336 332 333 336 339 337 334
65 86 93 103 107 110 106 99 95 92 93 75 50 44 49 50 46 46 46 53 60 23 4 355 346 341 341 340 336 334 329 328 332 337 338 335 334 333 333 334 333 334 334
57 73 78 92 97 100 103 103 97 99 99 87 70 51 38 39 52 38 27 30 35 13 359 353 349 344 336 334 334 333 331 332 334 337 334 332 332 331 328 328 330 333 335
59 81 88 85 89 95 103 106 99 95 101 95 54 9 18 61 74 44 17 15 15 5 354 345 338 336 335 336 335 331 328 327 330 329 328 327 326 325 322 321 322 326 329
65 91 102 111 104 101 102 103 101 102 101 89 58 37 32 39 49 32 13 6 1 353 343 338 336 334 329 328 324 321 320 324 327 326 322 319 319 320 320 320 323 327 331
82 110 99 96 106 125 97 97 106 109 108 95 75 47 34 35 30 23 11 1 355 350 350 349 338 336 335 325 315 308 306 310 308 306 308 310 314 315 316 318 321 323 331
87 108 112 110 103 111 110 104 98 99 98 92 71 47 31 23 21 12 0 355 353 348 347 347 339 330 328 327 322 315 310 307 306 299 293 295 304 309 313 316 319 323 330
99 103 102 104 105 105 104 100 92 88 89 77 59 38 23 16 12 4 359 357 353 351 348 342 336 332 328 324 320 318 320 324 324 318 305 299 301 306 308 309 315 322 329
81 97 101 95 94 101 107 106 97 92 93 77 58 44 23 10 1 358 355 352 348 343 340 337 331 326 323 321 318 321 325 326 326 324 317 303 303 306 309 312 317 321 326